Angoon, AK

1:00 AM AKST on December 08, 2019 (GMT -0900)
Angoon

Weather History for PAGN - May, 2019

Change the Weather History Date:

Sunday, May 26, 2019

  Actual Average (PASI) Record (PASI)
Temperature  
Mean Temperature 57 °F 50 °F  
Max Temperature 70 °F 55 °F 67 °F (1959)
Min Temperature 45 °F 44 °F 34 °F (1966)
Degree Days  
Heating Degree Days 8 15  
Month to date heating degree days 461  
Growing Degree Days 7 (Base 50)    
Moisture  
Dew Point 45 °F    
Average Humidity 71    
Maximum Humidity 93    
Minimum Humidity 40    
Precipitation  
Precipitation 0.00 in 0.13 in 0.84 in (1962)
Month to date precipitation 3.61  
Year to date precipitation 28.98  
Sea Level Pressure  
Sea Level Pressure 29.99 in    
Wind  
Wind Speed 1 mph (SW)    
Max Wind Speed 6 mph    
Max Gust Speed -    
Visibility 10 miles    
Events      
T = Trace of Precipitation, MM = Missing Value Source: NWS Daily Summary

Daily Weather History Graph

Daily Weather History Graph

Search for Another Location

Airport or City:

Astronomy

May. 26, 2019 Rise Set
Actual Time 4:17 AM AKDT 9:34 PM AKDT
Civil Twilight 3:17 AM AKDT 10:35 PM AKDT
Nautical Twilight 1:27 AM AKDT 12:23 AM AKDT
Astronomical Twilight Sun does not rise Sun does not rise
Moon 2:37 AM AKDT (5/26) 11:58 AM AKDT (5/26)
Length of Visible Light 19h 18m
Length of Day
17h 16m
Waning Gibbous, 49% of the Moon is Illuminated
May 26
Waning Gibbous
Jun 3
New
Jun 9
First Quarter
Jun 17
Full
Jun 25
Last Quarter

Hourly Weather History & Observations

Time (AKDT) Temp. Dew Point Humidity Pressure Visibility Wind Dir Wind Speed Gust Speed Precip Events Conditions
12:56 AM 48.0 °F 44.1 °F 86% 30.07 in 10.0 mi Calm Calm - N/A   Clear
1:56 AM 46.9 °F 44.1 °F 90% 30.06 in 10.0 mi Calm Calm - N/A   Clear
2:56 AM 46.0 °F 44.1 °F 93% 30.06 in 10.0 mi Calm Calm - N/A   Clear
3:56 AM 45.0 °F 43.0 °F 93% 30.06 in 10.0 mi Calm Calm - N/A   Clear
4:56 AM 45.0 °F 43.0 °F 93% 30.05 in 10.0 mi Calm Calm - N/A   Clear
5:56 AM 46.0 °F 44.1 °F 93% 30.05 in 10.0 mi Calm Calm - N/A   Clear
6:56 AM 48.0 °F 44.1 °F 86% 30.04 in 10.0 mi Calm Calm - N/A   Clear
7:56 AM 52.0 °F 46.0 °F 80% 30.03 in 10.0 mi Calm Calm - N/A   Clear
8:56 AM 54.0 °F 45.0 °F 72% 30.02 in 10.0 mi WSW 3.5 mph - N/A   Clear
9:56 AM 55.0 °F 46.9 °F 74% 30.01 in 10.0 mi Variable 3.5 mph - N/A   Clear
10:56 AM 57.0 °F 46.0 °F 67% 30.01 in 10.0 mi SSW 4.6 mph - N/A   Clear
11:56 AM 55.9 °F 46.9 °F 72% 30.00 in 10.0 mi Calm Calm - N/A   Clear
12:56 PM 59.0 °F 46.9 °F 64% 29.99 in 10.0 mi Calm Calm - N/A   Clear
1:56 PM 64.0 °F 48.0 °F 56% 29.98 in 10.0 mi Calm Calm - N/A   Clear
2:56 PM 68.0 °F 46.0 °F 45% 29.97 in 10.0 mi Calm Calm - N/A   Clear
3:56 PM 69.1 °F 44.1 °F 40% 29.96 in 10.0 mi Variable 5.8 mph - N/A   Clear
4:56 PM 68.0 °F 44.1 °F 42% 29.94 in 10.0 mi Variable 3.5 mph - N/A   Clear
5:56 PM 66.0 °F 44.1 °F 45% 29.94 in 10.0 mi Variable 5.8 mph - N/A   Clear
6:56 PM 64.9 °F 45.0 °F 48% 29.92 in 10.0 mi Calm Calm - N/A   Clear
7:56 PM 62.1 °F 45.0 °F 53% 29.93 in 10.0 mi Calm Calm - N/A   Clear
8:56 PM 55.0 °F 46.0 °F 72% 29.93 in 10.0 mi Calm Calm - N/A   Clear
9:56 PM 57.9 °F 46.0 °F 65% 29.94 in 10.0 mi Variable 3.5 mph - N/A   Clear
10:56 PM 53.1 °F 46.9 °F 80% 29.96 in 10.0 mi Calm Calm - N/A   Clear
11:56 PM 51.1 °F 46.9 °F 86% 29.96 in 10.0 mi Calm Calm - N/A   Clear